Temp
58 58 57 57 55 53 54 56 63 70 69 65 59 63 63 59 71 74 73 73 72 73 73 73 74 76 80 84 84 79 83 80 76 79 81 82 82 80 82 75 66 67 69 76
58 58 57 56 54 53 50 54 58 71 70 62 61 62 66 69 70 71 72 72 74 76 73 72 75 76 81 81 84 80 82 78 72 75 81 80 80 77 77 78 77 67 72 77
58 57 57 55 54 54 54 56 61 66 67 63 64 64 64 66 71 71 72 72 75 74 73 74 74 76 81 82 87 73 82 79 78 73 77 82 76 76 76 82 75 69 74 78
58 58 57 56 55 54 55 55 55 55 60 61 63 65 64 63 64 69 70 71 71 71 71 73 74 77 80 79 73 80 88 78 76 78 77 79 80 78 74 77 77 77 76 76
58 58 57 56 55 53 58 55 54 58 58 56 60 56 62 63 64 65 68 68 68 70 70 72 71 76 78 79 76 79 79 76 76 76 76 77 76 76 77 76 74 74 75 74
58 58 57 56 54 54 55 55 57 55 52 57 61 60 60 62 64 67 69 67 67 68 72 71 77 80 82 81 79 77 79 75 74 72 74 76 73 75 77 74 77 79 76 78
58 58 58 57 55 52 51 52 52 55 56 58 58 58 61 61 63 62 68 69 66 72 75 80 78 80 80 78 77 80 72 73 73 71 72 64 73 78 78 76 75 78 80 78
57 58 58 58 56 54 53 53 53 53 53 55 58 59 60 63 63 62 64 69 73 74 74 74 73 75 74 73 73 76 78 75 66 69 69 68 71 75 76 77 73 79 79 78
57 58 58 58 56 55 53 53 54 54 53 54 55 57 59 60 61 64 64 71 73 72 73 72 66 67 72 70 71 74 76 76 78 66 65 62 77 81 83 84 69 81 81 80
57 57 58 58 57 55 54 54 54 55 53 57 57 57 58 62 60 60 61 63 66 71 69 68 68 70 71 68 70 70 72 71 72 69 68 71 78 82 83 70 75 82 83 83
56 57 57 57 57 57 55 54 55 54 53 56 58 61 58 60 61 58 62 64 64 66 64 66 69 69 71 71 70 71 72 70 69 67 66 66 81 78 76 81 82 83 82 82
56 57 57 57 57 56 54 51 57 58 52 55 58 62 64 64 65 62 63 61 60 65 63 64 63 66 68 70 69 70 71 77 74 77 76 73 82 82 83 87 81 81 82 83
56 57 56 57 56 56 56 53 53 54 51 54 55 60 67 67 68 73 59 65 66 65 68 65 63 57 68 69 71 71 71 71 73 72 73 75 78 79 83 85 84 83 85 84
56 56 56 56 56 56 56 53 56 52 51 47 56 66 63 71 70 67 69 69 69 69 67 64 63 60 69 71 71 74 76 73 69 67 71 75 77 82 83 82 83 82 82 82
56 56 56 56 56 55 55 53 54 56 50 47 51 59 67 69 69 67 68 65 62 64 63 62 62 67 66 69 70 73 76 71 75 75 76 77 76 78 82 80 80 81 79 77
55 55 55 55 55 52 53 47 50 55 55 46 48 63 61 67 67 65 65 62 60 60 63 65 67 69 67 67 70 75 77 76 79 76 81 82 81 80 83 80 80 81 80 78
55 55 55 55 54 51 48 48 48 53 54 47 47 51 63 65 66 66 64 64 60 60 62 63 67 69 67 68 70 76 77 76 75 81 78 74 78 76 81 80 77 73 76 75
55 55 55 54 54 52 48 55 52 53 48 49 44 49 55 65 60 58 67 60 60 58 67 64 64 69 67 65 72 73 74 75 76 79 87 82 81 79 77 77 75 73 70 67
55 55 53 52 49 45 52 55 55 51 47 44 45 46 49 61 62 63 59 62 56 59 60 63 66 66 64 72 69 70 72 75 74 78 78 78 77 75 74 74 74 68 62 64
54 52 48 44 50 53 54 51 47 44 47 47 44 52 48 55 60 59 60 59 56 50 61 66 60 66 68 68 72 74 74 74 76 73 72 74 73 73 73 73 73 68 64 63
49 47 44 50 53 50 47 44 43 47 43 47 48 51 49 56 52 56 59 55 56 48 58 60 62 65 65 69 71 72 75 78 81 81 78 77 74 72 71 70 69 67 64 62
51 50 50 47 46 45 42 42 44 42 44 52 49 49 53 54 58 57 56 54 55 49 59 57 59 67 65 68 69 70 74 76 77 77 74 74 73 72 70 68 68 66 62 61
51 46 43 43 45 36 37 36 39 41 49 52 53 49 51 53 57 55 56 51 49 53 53 56 63 63 65 65 67 68 70 71 71 70 70 69 68 70 70 67 65 63 62 65
44 41 35 39 38 40 40 41 44 49 48 48 50 52 50 53 51 52 51 53 53 51 51 55 62 63 64 64 66 67 67 68 67 66 67 67 66 65 65 66 67 64 63 64
42 42 36 39 46 47 46 46 45 47 49 49 51 51 51 49 49 51 50 48 49 54 57 61 65 64 62 62 64 63 63 62 62 63 62 61 60 61 60 63 66 64 63 62
43 43 40 43 41 42 44 46 46 51 51 52 52 51 48 46 48 47 47 52 54 58 60 62 63 62 61 60 61 60 60 61 63 62 61 60 60 59 58 62 64 63 63 60
43 41 46 44 43 43 44 47 49 54 52 51 51 50 50 51 47 47 55 54 56 57 58 59 60 59 58 58 58 58 59 59 60 61 62 61 61 61 60 58 61 64 63 62
MSLP
1017.36 1016.71 1015.98 1015.30 1014.53 1013.46 1012.12 1011.77 1010.10 1009.31 1009.33 1008.75 1008.72 1007.72 1007.03 1006.26 1005.48 1004.87 1004.29 1003.76 1003.14 1002.43 1002.27 1002.06 1002.07 1001.91 1001.81 1001.88 1002.12 1002.73 1003.19 1003.11 1002.73 1002.89 1003.47 1003.70 1003.62 1003.79 1004.18 1004.34 1005.53 1005.87 1005.18 1003.91
1017.43 1016.76 1016.03 1015.38 1014.72 1014.24 1013.59 1012.18 1010.55 1009.10 1008.86 1008.36 1008.18 1007.71 1006.92 1006.27 1005.66 1005.02 1004.40 1003.78 1003.39 1002.81 1002.27 1002.27 1001.99 1001.87 1001.80 1001.91 1001.86 1002.04 1002.75 1002.88 1002.53 1002.70 1003.21 1003.63 1003.44 1003.95 1004.21 1004.31 1004.73 1005.00 1004.52 1003.93
1017.45 1016.87 1016.23 1015.54 1014.74 1014.15 1013.90 1012.48 1010.75 1009.42 1008.96 1008.86 1007.96 1007.38 1006.92 1006.36 1005.90 1005.36 1004.89 1004.26 1003.69 1003.05 1002.58 1002.45 1002.02 1001.86 1001.79 1001.96 1001.79 1001.88 1001.99 1002.41 1002.17 1002.21 1002.34 1002.62 1003.28 1003.75 1004.16 1003.71 1003.98 1004.62 1004.37 1004.08
1017.49 1017.02 1016.36 1015.63 1014.67 1013.94 1013.75 1012.65 1011.95 1011.47 1009.70 1009.01 1008.27 1007.64 1007.24 1006.65 1006.15 1005.81 1005.37 1004.62 1004.28 1003.77 1003.06 1002.68 1002.31 1002.09 1001.87 1002.14 1002.31 1002.38 1002.02 1001.88 1002.56 1002.59 1002.85 1002.87 1002.96 1003.43 1003.90 1003.86 1003.99 1003.89 1004.35 1004.65
1017.45 1017.00 1016.57 1015.79 1014.82 1013.68 1013.37 1013.24 1012.77 1011.87 1010.81 1009.94 1008.84 1008.22 1007.62 1007.11 1006.85 1006.40 1005.73 1005.32 1005.03 1004.53 1003.90 1003.63 1002.94 1002.51 1001.99 1001.69 1002.68 1002.49 1002.43 1002.24 1002.59 1002.77 1003.12 1003.15 1003.25 1003.57 1003.80 1004.22 1004.56 1004.64 1004.85 1005.35
1017.44 1017.08 1016.60 1016.12 1015.39 1014.29 1014.12 1014.38 1013.85 1012.97 1011.46 1010.24 1009.26 1008.79 1008.30 1007.83 1007.51 1007.00 1006.53 1006.19 1005.71 1005.05 1004.67 1004.44 1003.46 1002.87 1002.29 1002.21 1002.05 1002.21 1002.27 1002.48 1002.80 1002.98 1003.38 1003.46 1003.78 1003.93 1003.98 1004.28 1004.56 1004.43 1004.52 1005.44
1017.44 1017.06 1016.77 1016.36 1016.06 1015.83 1015.77 1015.43 1014.78 1013.29 1011.84 1010.91 1010.07 1009.58 1009.00 1008.47 1008.18 1007.74 1007.06 1006.60 1006.18 1005.57 1005.05 1003.48 1003.13 1002.54 1002.20 1002.21 1002.45 1002.33 1002.42 1002.51 1002.91 1003.29 1003.74 1003.84 1004.18 1004.36 1004.34 1004.31 1004.85 1004.99 1005.08 1005.76
1017.52 1017.18 1016.85 1016.58 1016.31 1016.16 1015.90 1015.74 1015.18 1013.99 1012.67 1011.98 1010.85 1010.18 1009.58 1009.02 1008.58 1008.22 1007.65 1006.87 1006.34 1005.92 1004.87 1003.40 1002.59 1002.29 1002.19 1002.39 1002.53 1002.49 1002.43 1002.27 1003.17 1003.47 1003.67 1004.43 1004.45 1004.49 1004.19 1003.88 1005.40 1005.63 1005.64 1006.06
1017.47 1017.26 1016.91 1016.58 1016.49 1016.30 1016.16 1015.99 1015.80 1014.86 1013.55 1012.35 1011.94 1010.98 1010.37 1009.59 1008.96 1008.52 1007.85 1007.28 1006.84 1006.04 1004.96 1003.78 1002.68 1001.90 1001.71 1002.05 1002.50 1002.68 1002.46 1002.06 1001.92 1003.57 1003.33 1003.40 1002.99 1003.59 1004.03 1003.98 1005.03 1005.50 1005.64 1005.83
1017.36 1017.22 1017.01 1016.72 1016.62 1016.49 1016.42 1016.05 1016.09 1015.24 1013.96 1012.86 1012.34 1011.48 1010.79 1010.36 1009.82 1009.21 1008.74 1008.05 1007.15 1006.34 1005.15 1004.13 1003.09 1002.15 1001.90 1001.56 1001.60 1002.14 1002.25 1002.32 1002.37 1002.92 1003.02 1003.20 1003.24 1003.62 1004.22 1004.17 1004.15 1004.95 1005.39 1005.66
1017.21 1017.14 1017.02 1016.85 1016.66 1016.52 1016.45 1016.21 1016.15 1015.64 1014.55 1013.20 1012.54 1012.00 1011.46 1011.00 1010.50 1009.79 1009.48 1008.70 1007.98 1006.92 1005.96 1005.00 1003.61 1002.72 1002.01 1001.71 1001.60 1001.42 1001.57 1002.03 1002.69 1003.18 1003.05 1003.02 1003.10 1003.95 1003.61 1003.40 1004.05 1004.73 1005.54 1006.01
1016.93 1016.89 1016.93 1016.85 1016.72 1016.51 1016.47 1016.34 1016.22 1016.01 1015.43 1013.70 1012.99 1012.23 1011.91 1011.51 1010.97 1010.68 1010.02 1009.37 1008.90 1008.12 1007.20 1006.53 1005.38 1003.88 1002.85 1001.95 1001.65 1001.87 1001.99 1001.43 1001.78 1002.43 1002.50 1002.61 1002.52 1002.77 1003.11 1003.18 1003.74 1005.03 1005.47 1006.08
1016.59 1016.62 1016.67 1016.68 1016.57 1016.47 1016.44 1016.48 1016.54 1016.14 1015.27 1013.52 1012.46 1010.78 1010.28 1010.67 1010.60 1010.50 1010.37 1009.29 1009.00 1008.76 1008.61 1007.73 1006.70 1005.11 1003.49 1002.09 1001.66 1001.73 1002.08 1002.18 1001.85 1002.48 1002.87 1002.94 1003.04 1003.29 1003.37 1003.88 1004.24 1005.05 1005.57 1006.05
1016.33 1016.38 1016.36 1016.40 1016.35 1016.34 1016.40 1016.44 1016.43 1016.41 1015.64 1014.06 1011.23 1010.30 1009.93 1009.54 1009.71 1009.92 1009.85 1009.39 1009.58 1009.41 1009.08 1008.11 1007.04 1005.61 1004.01 1002.48 1001.70 1001.37 1001.58 1001.98 1002.19 1002.87 1003.26 1003.43 1003.60 1003.33 1003.52 1004.34 1004.91 1005.47 1006.15 1006.58
1016.09 1016.11 1016.12 1016.10 1016.15 1016.12 1016.14 1016.22 1016.07 1016.03 1015.95 1014.26 1011.98 1010.47 1008.54 1008.48 1008.56 1008.87 1009.28 1009.60 1009.96 1009.66 1008.99 1008.15 1006.81 1005.48 1004.58 1003.21 1002.36 1001.21 1001.01 1001.16 1001.16 1001.19 1001.58 1001.60 1002.56 1003.63 1004.07 1004.49 1005.23 1005.93 1006.41 1007.32
1015.74 1015.85 1015.90 1015.94 1015.99 1016.04 1015.88 1015.87 1016.03 1015.83 1015.80 1015.06 1012.55 1009.79 1008.51 1007.94 1007.92 1008.21 1008.62 1009.25 1009.89 1009.67 1008.66 1007.54 1006.49 1005.54 1004.98 1003.14 1001.54 1000.49 1000.47 1000.74 1000.53 1000.48 1001.60 1001.75 1002.49 1003.85 1004.50 1005.04 1005.94 1006.54 1007.21 1008.02
1015.60 1015.70 1015.74 1015.76 1015.82 1016.03 1015.85 1015.69 1015.89 1015.82 1015.86 1014.90 1012.76 1010.05 1008.12 1007.68 1007.62 1007.87 1008.42 1008.98 1009.13 1008.94 1008.18 1007.18 1006.16 1005.29 1004.85 1002.97 1000.96 1000.14 1000.34 1000.66 1000.94 1000.81 1001.56 1002.92 1003.48 1004.18 1005.13 1005.89 1006.75 1007.70 1008.59 1009.38
1015.49 1015.53 1015.57 1015.59 1015.64 1015.70 1015.40 1014.39 1014.99 1015.59 1015.62 1014.74 1013.06 1010.28 1008.41 1007.32 1006.98 1007.16 1007.37 1008.07 1008.66 1008.25 1007.11 1006.88 1005.84 1004.87 1004.21 1002.19 1000.65 1000.54 1000.66 1000.91 1001.27 1001.43 1001.10 1001.73 1003.45 1004.86 1005.83 1006.61 1007.47 1008.49 1009.59 1010.58
1015.26 1015.35 1015.43 1015.63 1015.59 1015.28 1014.24 1014.08 1014.35 1015.30 1015.66 1014.06 1012.60 1010.54 1008.24 1007.37 1006.27 1006.36 1007.18 1007.20 1007.46 1007.49 1006.79 1006.13 1005.69 1003.93 1002.47 1000.74 1000.50 1000.42 1000.52 1000.41 1001.18 1002.00 1002.45 1003.23 1004.00 1005.28 1006.35 1007.20 1008.16 1009.20 1010.50 1011.38
1015.04 1015.31 1015.36 1014.77 1014.48 1014.14 1014.22 1014.23 1014.73 1015.39 1014.17 1013.42 1011.86 1010.44 1008.83 1007.81 1006.44 1006.26 1006.56 1006.59 1006.74 1006.74 1006.14 1005.80 1005.22 1002.97 1001.52 1001.09 1000.86 1000.76 1000.68 1000.83 1001.36 1002.01 1003.19 1003.92 1004.85 1005.74 1006.75 1007.67 1008.65 1009.79 1010.93 1011.86
1015.07 1014.91 1014.64 1014.30 1014.15 1014.02 1013.72 1013.44 1013.51 1013.06 1012.48 1011.61 1010.30 1009.54 1008.58 1007.82 1007.10 1006.26 1006.19 1006.23 1006.57 1006.39 1005.75 1005.14 1003.78 1002.21 1001.37 1001.28 1001.27 1001.54 1001.64 1001.61 1001.75 1001.85 1002.76 1003.72 1004.53 1005.99 1007.26 1008.48 1009.44 1010.54 1011.57 1012.35
1014.68 1014.77 1014.59 1014.37 1013.82 1012.89 1012.75 1012.14 1011.57 1011.20 1009.94 1008.73 1008.24 1007.97 1007.81 1007.29 1006.76 1006.29 1006.69 1006.16 1006.35 1005.74 1005.51 1004.62 1002.88 1001.60 1001.63 1001.70 1001.84 1002.18 1002.45 1002.35 1002.59 1002.98 1003.84 1004.89 1005.95 1006.97 1007.91 1009.03 1010.06 1011.13 1012.14 1012.84
1014.40 1014.42 1014.05 1013.49 1012.81 1012.38 1011.40 1010.74 1010.17 1009.30 1007.90 1007.21 1007.02 1007.00 1006.87 1006.75 1006.17 1005.85 1005.85 1005.90 1005.90 1005.50 1005.33 1003.15 1001.93 1001.61 1001.87 1002.35 1002.69 1002.97 1003.23 1003.41 1003.88 1004.52 1005.40 1006.29 1007.22 1008.10 1008.70 1009.70 1010.87 1011.74 1012.47 1013.12
1014.16 1013.56 1013.10 1012.27 1011.49 1010.59 1009.69 1009.56 1008.97 1008.08 1007.52 1007.03 1006.82 1005.83 1005.87 1005.19 1005.52 1004.86 1004.47 1004.86 1004.53 1005.17 1003.11 1001.53 1001.03 1001.45 1002.03 1002.80 1003.35 1003.71 1004.28 1004.70 1005.07 1005.75 1006.51 1007.30 1008.11 1009.06 1009.80 1010.55 1011.25 1012.06 1012.75 1013.48
1013.66 1012.95 1011.89 1010.78 1009.99 1009.42 1009.22 1009.02 1008.57 1007.82 1007.34 1006.86 1005.83 1005.52 1005.68 1005.19 1004.41 1003.90 1004.27 1004.58 1003.81 1002.55 1001.29 1000.78 1000.05 1001.30 1002.28 1002.97 1004.00 1004.65 1005.41 1005.94 1006.30 1006.92 1007.46 1008.39 1009.16 1009.82 1010.80 1011.46 1011.96 1012.68 1013.21 1013.93
1013.12 1012.07 1010.91 1009.93 1009.52 1008.66 1008.44 1007.82 1006.79 1006.00 1005.57 1005.49 1004.33 1003.92 1004.20 1004.10 1004.09 1004.02 1003.41 1002.86 1001.40 1000.75 1000.81 1000.76 1000.97 1001.73 1002.55 1003.41 1004.45 1005.42 1006.48 1006.98 1007.29 1008.03 1008.26 1008.81 1009.76 1010.65 1011.54 1012.26 1012.75 1013.22 1013.73 1014.52
1011.92 1010.76 1010.02 1009.36 1008.69 1008.11 1007.75 1006.97 1005.85 1005.17 1004.65 1004.19 1003.93 1003.16 1003.08 1003.68 1003.73 1003.37 1002.85 1002.12 1001.90 1001.59 1001.62 1001.77 1001.76 1002.32 1003.22 1004.19 1004.59 1006.16 1007.16 1007.89 1008.37 1008.42 1008.80 1009.57 1010.56 1011.45 1012.16 1012.77 1013.63 1013.95 1014.54 1015.14
Wind_Speed
17 18 18 21 21 25 4 3 2 2 3 2 1 4 5 1 2 1 2 1 2 4 7 6 6 8 6 10 14 10 5 2 2 2 4 2 1 6 6 4 5 1 3 2
17 19 19 18 20 17 4 3 3 1 3 3 3 2 2 2 1 2 2 2 2 1 4 5 5 6 3 13 12 12 9 4 2 5 5 4 3 4 3 5 4 5 2 0
16 17 19 19 20 18 2 2 1 1 2 1 2 4 2 2 2 2 3 3 2 1 2 2 7 5 4 10 9 8 12 5 7 6 2 5 5 5 6 6 6 7 4 2
15 16 18 19 22 19 2 3 3 3 2 2 1 0 2 2 1 2 2 0 3 5 3 3 3 4 4 4 6 6 9 10 5 3 2 2 5 10 11 9 3 4 5 3
15 16 16 18 21 19 2 3 3 2 1 2 2 1 2 2 1 2 2 0 8 5 3 5 4 5 3 3 5 8 4 6 7 4 3 2 3 2 8 4 7 5 6 3
14 14 15 15 18 12 4 2 1 3 2 1 3 2 2 4 1 1 4 4 5 6 1 9 12 10 7 2 6 8 10 9 7 6 3 5 5 3 4 4 5 9 6 7
14 11 13 13 12 9 1 2 2 3 1 1 3 2 2 1 3 3 4 6 3 3 14 15 5 4 2 5 2 3 8 8 0 5 6 7 4 1 4 11 4 5 13 10
10 12 12 12 10 9 2 2 2 2 1 2 2 2 2 4 3 3 4 4 4 12 8 3 2 3 3 4 4 2 5 6 6 5 5 3 4 8 8 4 6 5 10 9
8 10 11 8 9 10 2 1 1 2 2 1 2 3 3 3 3 2 3 4 9 3 2 2 5 5 4 6 5 3 5 5 4 4 5 7 6 16 5 8 7 8 7 9
6 8 10 11 10 8 3 2 2 3 3 1 2 2 2 2 1 3 3 8 5 4 2 4 4 5 2 8 11 7 4 4 5 6 3 2 4 10 9 6 6 15 11 8
6 5 7 9 9 9 3 3 3 3 3 5 4 2 1 3 2 3 5 4 1 2 3 3 2 4 5 4 3 6 7 7 4 4 4 4 12 11 10 5 12 15 10 9
7 6 5 6 7 6 3 2 4 4 4 5 3 9 13 11 11 5 2 4 4 2 3 1 3 3 3 4 5 1 5 2 7 5 4 2 14 3 4 16 17 10 11 8
5 7 4 5 6 5 2 3 4 2 3 6 4 8 5 12 18 13 4 3 1 3 4 2 2 6 2 5 4 5 2 1 4 6 4 6 8 5 14 15 12 12 9 10
5 6 5 5 5 4 2 2 1 2 3 4 4 4 6 2 7 14 18 12 1 3 3 3 3 5 2 2 1 3 1 9 8 5 5 9 6 11 16 13 14 13 9 8
6 6 6 5 4 4 3 4 4 6 4 4 7 13 11 8 13 17 15 15 10 4 3 4 4 3 3 2 2 4 7 9 7 6 17 4 14 13 16 17 14 13 12 10
5 3 2 3 3 2 2 2 2 5 4 3 5 4 5 2 5 11 13 9 6 3 4 3 4 4 3 4 4 4 8 6 4 6 15 8 16 16 13 15 13 10 10 11
2 1 3 4 1 1 2 2 2 4 2 3 5 5 4 3 6 5 5 10 4 3 3 4 4 3 4 4 5 9 10 8 4 18 21 15 16 11 13 14 14 13 12 11
2 3 5 5 5 4 5 5 14 4 2 2 3 6 4 6 5 5 4 6 5 4 2 2 4 2 3 6 4 7 8 10 15 16 13 17 17 16 13 14 15 14 12 11
4 4 3 0 3 3 3 3 4 3 2 3 3 3 3 0 5 4 4 5 5 2 2 3 2 4 7 5 12 14 19 15 19 13 16 19 19 16 15 15 13 13 12 11
3 3 2 3 4 5 6 4 4 4 4 4 4 3 5 4 4 4 5 0 2 3 4 2 5 5 5 6 6 9 12 20 21 22 15 16 15 16 15 13 11 12 12 12
1 2 3 1 4 2 3 4 5 6 5 6 6 11 8 3 6 4 2 4 3 4 4 4 4 5 3 5 9 7 13 16 11 15 17 18 20 18 15 13 12 13 13 12
1 2 2 2 3 3 5 5 5 5 6 6 6 7 9 4 5 4 4 1 2 4 1 4 4 2 4 8 10 11 10 10 12 14 17 15 15 15 15 14 14 13 13 12
1 2 3 3 3 3 5 6 4 5 4 4 5 6 5 1 5 3 6 8 4 3 3 6 4 3 6 8 8 10 9 12 14 16 15 18 18 15 16 16 13 15 14 12
2 4 3 4 5 6 6 4 3 3 4 8 6 5 5 6 4 5 8 2 5 7 6 6 4 9 10 10 9 11 12 13 16 17 18 18 17 15 15 14 14 13 13 13
3 3 5 6 5 4 3 5 6 10 9 8 3 3 4 3 3 1 5 7 9 9 6 5 4 13 13 14 12 12 13 13 14 15 16 17 16 15 13 11 12 13 13 13
4 6 4 4 7 8 8 9 10 7 7 6 4 4 5 3 2 2 5 4 6 3 1 2 8 14 13 13 13 12 10 11 13 13 16 16 16 14 13 12 12 12 13 13
4 4 4 8 8 9 6 4 5 2 3 4 3 3 3 4 3 5 5 3 2 1 2 4 6 9 13 15 15 14 11 13 14 15 16 17 16 15 14 14 10 11 11 11
Wind_Direction
341 344 342 347 341 338 36 315 166 123 230 133 351 177 194 206 291 253 298 252 249 177 168 144 178 187 240 176 154 183 175 117 236 256 86 340 275 150 178 246 173 301 328 296
346 346 343 346 342 354 316 355 310 101 252 164 167 188 201 243 257 308 334 284 238 266 171 166 204 192 158 161 159 166 171 207 232 157 148 122 223 133 119 108 127 184 237 97
350 347 346 343 339 347 258 294 146 121 74 19 144 151 108 144 278 283 299 304 300 322 123 215 195 197 174 190 200 129 166 156 202 218 188 137 160 165 183 222 189 158 228 313
352 350 348 347 341 345 248 359 60 3 138 90 18 341 102 111 57 351 315 120 25 18 112 138 153 191 151 95 148 152 187 212 188 240 267 203 148 159 180 203 157 223 128 206
351 353 352 352 349 342 70 10 350 1 54 289 178 8 134 147 138 295 40 20 347 358 24 18 335 357 202 171 169 166 196 201 172 202 163 192 124 108 163 181 153 104 143 107
346 355 354 1 3 357 31 20 308 290 27 53 189 99 97 102 324 161 294 322 325 301 119 315 283 274 271 299 187 171 174 155 170 194 153 152 156 161 188 138 176 161 171 130
343 351 358 3 16 36 346 31 291 313 82 350 71 24 10 9 350 302 300 301 233 20 313 291 227 204 204 174 146 199 150 140 76 137 157 204 45 272 146 110 101 167 124 136
345 352 351 359 11 18 2 352 316 357 343 331 273 15 352 313 317 228 264 290 340 323 300 288 213 139 172 102 56 148 240 139 109 156 175 99 108 163 165 153 139 148 138 152
340 348 347 354 11 10 3 353 308 310 308 143 354 324 340 338 333 275 276 321 320 289 259 222 204 185 179 161 126 101 118 85 134 156 151 186 186 174 176 146 150 191 193 193
328 342 354 6 6 6 6 313 281 285 282 273 233 234 342 339 322 308 315 342 344 336 199 210 202 209 197 170 162 156 130 66 136 153 118 207 202 157 156 206 155 174 187 167
302 323 338 347 356 5 13 332 308 320 300 279 238 266 312 357 332 325 2 268 133 321 211 237 183 229 184 175 145 171 155 149 150 122 122 191 153 137 195 142 138 157 171 172
285 287 309 327 344 8 60 336 354 344 260 299 304 270 262 247 251 298 305 322 280 14 325 338 294 252 210 166 185 98 195 196 164 214 157 78 168 154 154 157 147 159 163 162
275 313 270 302 325 340 30 323 323 284 278 269 267 242 258 229 233 231 256 228 277 128 3 333 302 267 224 185 193 129 141 218 117 163 151 171 166 147 148 154 148 149 153 150
260 286 278 285 311 325 348 269 215 299 285 280 289 330 272 267 214 215 224 244 141 4 326 279 264 266 227 271 26 207 110 157 130 79 99 114 141 158 145 139 137 132 134 150
275 298 286 288 322 327 288 230 231 229 276 307 295 304 268 254 226 222 214 223 234 257 245 224 240 259 258 211 272 195 194 156 182 184 179 149 163 157 153 140 142 147 141 124
251 279 321 320 344 59 319 263 138 204 196 270 290 312 269 228 185 201 202 191 186 215 231 233 260 262 252 250 228 175 178 191 184 162 153 162 140 147 151 139 145 131 119 124
242 256 288 293 193 134 235 336 130 153 187 236 282 273 237 255 175 164 152 169 192 197 225 230 262 262 228 254 229 172 184 184 189 136 125 114 149 154 149 138 117 105 102 105
235 269 281 275 271 264 274 238 209 166 283 271 267 274 270 189 171 154 158 154 200 201 252 219 246 250 229 248 207 161 149 138 145 158 158 138 135 135 133 127 130 122 111 117
267 280 341 122 185 220 242 248 148 133 271 268 232 258 285 113 211 132 166 202 179 141 223 224 234 240 227 248 177 164 157 161 151 136 128 136 141 140 139 143 144 124 125 123
316 157 218 235 205 265 162 194 131 177 216 224 245 257 257 344 208 175 162 168 123 129 217 174 228 258 280 264 174 165 153 138 137 124 133 141 146 152 154 154 138 129 132 132
158 201 241 296 329 226 197 200 193 186 217 206 214 220 234 205 235 183 271 172 168 119 187 223 216 239 229 167 142 150 151 148 150 149 153 162 155 154 145 133 124 125 131 128
359 305 297 289 239 216 201 205 174 217 224 192 203 209 201 214 215 188 164 122 173 194 91 223 229 213 163 151 143 140 148 128 116 128 134 136 138 137 129 126 127 122 121 124
226 221 240 211 191 253 222 199 209 233 215 194 190 180 172 60 240 161 182 173 200 98 245 215 225 172 147 134 137 123 103 104 110 114 114 119 119 125 128 126 124 130 130 134
233 242 235 239 198 227 212 228 246 282 284 297 283 174 94 243 156 199 160 130 112 207 242 217 187 170 146 134 129 128 128 126 121 122 124 121 120 119 125 128 132 131 129 130
249 228 235 229 235 262 227 247 262 255 259 256 214 158 162 319 216 95 110 165 208 210 200 206 204 133 144 134 133 128 132 134 130 131 127 124 122 118 114 120 128 128 126 124
237 234 259 257 259 262 251 258 265 253 210 197 234 204 139 112 345 228 202 215 218 146 182 223 148 134 130 122 125 112 120 129 127 133 129 123 124 124 121 125 126 126 127 130
248 251 240 253 263 267 258 227 246 233 260 167 232 203 119 116 185 220 198 239 31 8 148 128 107 115 120 128 108 114 130 134 134 125 117 117 120 124 123 118 125 122 122 123